Printer-friendly version

IAU Minor Planet Center

Minor Planet Center

MPEC 2007-W76 : 2007 VR183

The following Minor Planet Electronic Circular may be linked-to from your own Web pages, but must not otherwise be redistributed electronically.


Read MPEC 2007-W75 Read MPEC 2007-W77


M.P.E.C. 2007-W76                                Issued 2007 Nov. 27, 17:22 UT

     The Minor Planet Electronic Circulars contain information on unusual
         minor planets and routine data on comets.  They are published
   on behalf of Commission 20 of the International Astronomical Union by the
          Minor Planet Center, Smithsonian Astrophysical Observatory,
                          Cambridge, MA 02138, U.S.A.

             Prepared using the Tamkin Foundation Computer Network

                              MPC@CFA.HARVARD.EDU
          URL http://www.cfa.harvard.edu/iau/mpc.html  ISSN 1523-6714

                                  2007 VR183

Additional Observations:
     K07VI3R  C2007 09 14.45903 04 23 39.01 +21 18 20.0          21.3 V EW076G96
     K07VI3R  C2007 09 14.46708 04 23 39.48 +21 18 17.5          20.9 V EW076G96
     K07VI3R  C2007 09 14.47504 04 23 39.94 +21 18 14.9          20.9 V EW076G96
     K07VI3R  C2007 09 14.48312 04 23 40.41 +21 18 12.6          20.8 V EW076G96
     K07VI3R  C2007 11 02.47999 04 47 12.37 +10 59 03.2          19.2 V EW076703
     K07VI3R  C2007 11 02.48659 04 47 12.22 +10 58 53.6          19.7 V EW076703
     K07VI3R  C2007 11 02.49327 04 47 12.08 +10 58 43.7          19.2 V EW076703
     K07VI3R  C2007 11 02.49993 04 47 12.01 +10 58 35.5          18.8 V EW076703
     K07VI3R  C2007 11 14.26128 04 40 53.49 +05 51 30.1          18.6 r EW076699
     K07VI3R  C2007 11 14.28413 04 40 52.43 +05 50 50.6          18.5 r EW076699
     K07VI3R  C2007 11 14.30696 04 40 51.16 +05 50 09.9          19.1 r EW076699
     K07VI3R  C2007 11 14.32981 04 40 50.05 +05 49 29.9          19.0 r EW076699
     K07VI3R  C2007 11 15.26754 04 40 04.83 +05 21 53.0          18.9 V EW076703
     K07VI3R  C2007 11 15.27409 04 40 04.44 +05 21 41.7          18.6 V EW076703
     K07VI3R  C2007 11 15.28060 04 40 04.04 +05 21 31.5          17.6 V EW076703
     K07VI3R  C2007 11 20.28175 04 35 25.33 +02 47 01.2          18.4 V EW076703
     K07VI3R  C2007 11 20.29169 04 35 24.72 +02 46 41.9          18.4 V EW076703
     K07VI3R  C2007 11 20.30161 04 35 24.00 +02 46 22.6          18.6 V EW076703
     K07VI3R  C2007 11 20.31154 04 35 23.38 +02 46 03.4          18.4 V EW076703

Observer details:
699 Lowell Observatory-LONEOS.  Observer B. A. Skiff.  0.59-m LONEOS Schmidt
    + CCD.
703 Catalina Sky Survey.  Observers R. E. Hill, E. C. Beshore.  Measurers
    E. C. Beshore, A. Boattini, G. J. Garradd, A. R. Gibbs, A. D. Grauer,
    R. E. Hill, R. A. Kowalski, S. M. Larson, R. H. McNaught.  0.68-m Schmidt
    + CCD.
G96 Mt. Lemmon Survey.  Observer A. Boattini.  Measurers E. C. Beshore,
    A. Boattini, G. J. Garradd, A. R. Gibbs, A. D. Grauer, R. E. Hill,
    R. A. Kowalski, S. M. Larson, R. H. McNaught.  1.5-m reflector + CCD.

Orbital elements:
2007 VR183                                               Earth MOID = 0.1894 AU
Epoch 2007 Oct. 27.0 TT = JDT 2454400.5                 MPC
M 328.31956              (2000.0)            P               Q
n   0.22435755     Peri.  297.09134     -0.88367737     -0.38741079
a   2.6823097      Node   221.63947     +0.42309721     -0.90117072
e   0.6230460      Incl.   23.29188     -0.20025749     -0.19443305
P   4.39           H   17.0           G   0.15           U   5
Residuals in seconds of arc
070914 G96  0.2+  0.1+    071108 703  1.2-  0.8-    071114 699  1.0+  0.2+
070914 G96  0.1+  0.1+    071109 703  0.9+  0.1+    071114 699  0.8-  0.5-
070914 G96  0.1-  0.1-    071109 703  0.3-  0.9+    071114 699  0.0   0.4-
070914 G96  0.2-  0.1+    071109 703  0.3-  0.6-    071115 703  0.6+  0.9+
071102 703  0.1-  0.2+    071109 703  0.3-  0.9+    071115 703  0.0   1.2+
071102 703  0.4-  0.3-    071109 D29  1.4+  0.9+    071115 703 (0.8-  2.6+)
071102 703  0.5-  0.9-    071109 D29  0.0   0.4-    071120 703  0.2-  0.1+
071102 703  0.5+  0.1+    071109 D29  0.9+  0.2+    071120 703  0.4+  0.1-
071108 703  0.6-  0.0     071109 D29  0.1+  0.1+    071120 703  0.7-  0.4-
071108 703  0.1+  0.8-    071114 699  0.4-  0.3-    071120 703  0.2-  0.5-

Ephemeris:
2007 VR183               a,e,i = 2.68, 0.62, 23                  q = 1.0111
Date    TT    R. A. (2000) Decl.     Delta      r     Elong.  Phase     V
2007 11 26    04 28.96   -00 21.8    0.738    1.694   158.0    12.6    18.2
2007 12 06    04 15.34   -06 08.8    0.678    1.610   150.4    17.6    18.1
2007 12 16    04 00.47   -11 45.1    0.644    1.527   138.5    25.3    18.1
2007 12 26    03 46.88   -16 36.9    0.628    1.444   125.9    33.5    18.2
2008 01 05    03 36.74   -20 27.4    0.624    1.364   114.2    41.1    18.3
2008 01 15    03 31.53   -23 18.2    0.624    1.287   104.1    47.9    18.3
2008 01 25    03 31.82   -25 23.1    0.620    1.214    95.7    53.8    18.4
2008 02 04    03 37.51   -26 57.6    0.608    1.149    89.0    59.0    18.3
2008 02 14    03 48.42   -28 14.5    0.586    1.094    84.0    63.9    18.3
2008 02 24    04 04.47   -29 23.8    0.551    1.050    80.6    68.3    18.2
2008 03 05    04 26.07   -30 29.5    0.504    1.022    78.9    72.2    18.1
2008 03 15    04 54.88   -31 29.4    0.448    1.011    79.2    75.0    17.9
2008 03 25    05 34.38   -32 11.0    0.386    1.018    82.0    76.0    17.6
2008 04 04    06 30.91   -31 51.4    0.325    1.042    88.3    73.6    17.2
2008 04 14    07 51.50   -28 47.8    0.276    1.082    99.2    66.2    16.7
2008 04 24    09 30.13   -20 57.0    0.259    1.135   113.7    54.3    16.3
2008 05 04    11 00.50   -10 26.1    0.288    1.198   125.1    43.5    16.4
2008 05 14    12 06.53   -02 15.8    0.361    1.269   128.9    38.3    16.8
2008 05 24    12 52.03   +02 24.6    0.461    1.345   127.6    36.7    17.5
2008 06 03    13 24.75   +04 38.3    0.581    1.425   124.2    36.1    18.1
2008 06 13    13 50.12   +05 23.3    0.715    1.507   120.0    35.7    18.6
2008 06 23    14 11.26   +05 16.1    0.860    1.590   115.6    35.2    19.1
2008 07 03    14 29.90   +04 37.6    1.014    1.673   111.0    34.6    19.6
2008 07 13    14 47.14   +03 40.7    1.175    1.757   106.3    33.7    20.0
2008 07 23    15 03.56   +02 33.8    1.344    1.840   101.6    32.8    20.3
2008 08 02    15 19.53   +01 22.4    1.518    1.922    96.7    31.6    20.7
2008 08 12    15 35.31   +00 10.2    1.696    2.002    91.8    30.4    21.0
2008 08 22    15 51.00   -01 00.0    1.878    2.082    86.7    29.0    21.2
2008 09 01    16 06.69   -02 06.3    2.061    2.160    81.7    27.5    21.5
2008 09 11    16 22.45   -03 07.1    2.246    2.236    76.5    26.0    21.7
2008 09 21    16 38.26   -04 01.2    2.429    2.311    71.3    24.3    21.9
2008 10 01    16 54.14   -04 48.1    2.610    2.384    66.0    22.6    22.0

Timothy B. Spahr             (C) Copyright 2007 MPC           M.P.E.C. 2007-W76

Read MPEC 2007-W75 Read MPEC 2007-W77


Our Web policy. Index to the CBAT/MPC/ICQ pages.


Valid HTML 4.01!